This is the latest recevied weather packets stored in our database for station/object WD4ITN. If no packets are shown the sender has not sent any weather packets the latest 10 day(s).
| Time | Temp. | Humidity | Pressure | Rain* | Wind** | Luminosity | Snow |
|---|---|---|---|---|---|---|---|
| 1777909414 | 16.11° C | 56% | 1013.1 hPa | 0 mm | - | - | - |
| 1777909104 | 16.11° C | 55% | 1013.1 hPa | 0 mm | - | - | - |
| 1777908805 | 16.11° C | 56% | 1013 hPa | 0 mm | - | - | - |
| 1777908502 | 16.11° C | 53% | 1013.1 hPa | 0 mm | - | - | - |
| 1777908196 | 15.56° C | 58% | 1013 hPa | 0 mm | - | - | - |
| 1777907900 | 15.56° C | 56% | 1013.3 hPa | 0 mm | - | - | - |
| 1777907595 | 15.56° C | 53% | 1013.1 hPa | 0 mm | - | - | - |
| 1777907000 | 15.56° C | 57% | 1013.1 hPa | 0 mm | - | - | - |
| 1777906408 | 15° C | 57% | 1013.4 hPa | 0 mm | - | - | - |
| 1777906111 | 15° C | 58% | 1013.5 hPa | 0 mm | - | - | - |
| 1777905800 | 15° C | 54% | 1013.6 hPa | 0 mm | - | - | - |
| 1777905500 | 15° C | 57% | 1012.8 hPa | 0 mm | - | - | - |
| 1777905198 | 14.44° C | 58% | 1012.6 hPa | 0 mm | - | - | - |
| 1777904916 | 14.44° C | 59% | 1012.7 hPa | 0 mm | - | - | - |
| 1777904607 | 14.44° C | 59% | 1012.9 hPa | 0 mm | - | - | - |
| 1777904306 | 14.44° C | 58% | 1012.8 hPa | 0 mm | - | - | - |
| 1777904000 | 13.89° C | 60% | 1012.7 hPa | 0 mm | - | - | - |
| 1777903700 | 13.33° C | 59% | 1012.7 hPa | 0 mm | - | - | - |
| 1777903399 | 13.89° C | 57% | 1012.7 hPa | 0 mm | - | - | - |
| 1777903116 | 13.33° C | 59% | 1012.7 hPa | 0 mm | - | - | - |
| 1777902804 | 13.33° C | 62% | 1012.8 hPa | 0 mm | - | - | - |
| 1777902501 | 13.33° C | 62% | 1012.8 hPa | 0 mm | - | - | - |
| 1777902196 | 12.78° C | 62% | 1012.8 hPa | 0 mm | - | - | - |
| 1777901914 | 12.78° C | 63% | 1012.8 hPa | 0 mm | - | - | - |
| 1777901614 | 12.78° C | 64% | 1012.8 hPa | 0 mm | - | - | - |
* Rain since midnight (hover to see other rain measurements)
** Current wind speed in m/s (hover to see current wind gust speed)